Trinidad, CO

9:19 AM MDT on July 26, 2017 (GMT -0600)
Stokes

Weather History for KTAD - June, 2013

Change the Weather History Date:

Saturday, June 29, 2013

  Actual Average Record
Temperature  
Mean Temperature 75 °F 72 °F  
Max Temperature 91 °F 88 °F 101 °F (1990)
Min Temperature 58 °F 57 °F 36 °F (2012)
Degree Days  
Heating Degree Days 0 0  
Month to date heating degree days 21 38  
Since 1 June heating degree days 21 38  
Since 1 July heating degree days 5457 5533  
Cooling Degree Days 10 7  
Month to date cooling degree days 275 133  
Year to date cooling degree days 338 161  
Since 1 June cooling degree days 275 133  
Growing Degree Days 25 (Base 50)    
Moisture  
Dew Point 47 °F    
Average Humidity 42    
Maximum Humidity 64    
Minimum Humidity 19    
Precipitation  
Precipitation 0.00 in 0.04 in 0.45 in (2000)
Month to date precipitation 1.08 1.36  
Year to date precipitation 3.02 5.88  
Sea Level Pressure  
Sea Level Pressure 30.04 in    
Wind  
Wind Speed 9 mph (NW)    
Max Wind Speed 26 mph    
Max Gust Speed 35 mph    
Visibility 10 miles    
Events Thunderstorm    
T = Trace of Precipitation, MM = Missing Value Source: NWS Daily Summary

Daily Weather History Graph

Daily Weather History Graph

Search for Another Location

Airport or City:

Trip Planner

Search our weather history database for the weather conditions in past years. The results will help you decide how hot, cold, wet, or windy it might be!

Date:

Astronomy

Jun. 29, 2013 Rise Set
Actual Time 5:39 AM MDT 8:21 PM MDT
Civil Twilight 5:08 AM MDT 8:52 PM MDT
Nautical Twilight 4:30 AM MDT 9:31 PM MDT
Astronomical Twilight 3:46 AM MDT 10:14 PM MDT
Moon 12:01 AM MDT (6/29) 12:44 PM MDT (6/29)
Length of Visible Light 15h 43m
Length of Day
14h 41m
Waning Gibbous, 55% of the Moon is Illuminated
Jun 29
Waning Gibbous
Jun 29
Last Quarter
Jul 8
New
Jul 15
First Quarter
Jul 22
Full

Hourly Weather History & Observations

Time (MDT) Temp. Dew Point Humidity Pressure Visibility Wind Dir Wind Speed Gust Speed Precip Events Conditions
12:37 AM 75.2 °F 44.6 °F 34% 30.30 in 7.0 mi WNW 13.8 mph - N/A   Mostly Cloudy
12:54 AM 73.9 °F 45.0 °F 35% 29.99 in 8.0 mi WNW 13.8 mph - N/A   Overcast
1:01 AM 73.4 °F 44.6 °F 36% 30.30 in 9.0 mi WNW 13.8 mph - N/A   Mostly Cloudy
1:11 AM 73.4 °F 46.4 °F 38% 30.30 in 9.0 mi WNW 13.8 mph - N/A   Scattered Clouds
1:54 AM 71.1 °F 45.0 °F 39% 30.00 in 10.0 mi WNW 9.2 mph - N/A   Clear
2:54 AM 70.0 °F 48.9 °F 47% 30.06 in 10.0 mi North 13.8 mph - N/A   Mostly Cloudy
3:54 AM 66.9 °F 50.0 °F 54% 30.05 in 10.0 mi NNE 3.5 mph - N/A   Clear
4:54 AM 63.0 °F 48.9 °F 60% 30.05 in 10.0 mi West 4.6 mph - N/A   Clear
5:54 AM 60.1 °F 48.0 °F 64% 30.06 in 10.0 mi NNW 5.8 mph - N/A   Clear
6:54 AM 60.1 °F 48.0 °F 64% 30.07 in 10.0 mi WNW 3.5 mph - N/A   Clear
7:54 AM 66.9 °F 50.0 °F 54% 30.06 in 10.0 mi West 6.9 mph - N/A   Clear
8:54 AM 71.1 °F 51.1 °F 49% 30.03 in 10.0 mi Variable 3.5 mph - N/A   Clear
9:54 AM 75.9 °F 50.0 °F 40% 30.01 in 10.0 mi Calm Calm - N/A   Clear
10:54 AM 80.1 °F 48.9 °F 34% 29.99 in 10.0 mi ENE 5.8 mph - N/A   Clear
11:54 AM 82.0 °F 48.0 °F 30% 29.97 in 10.0 mi East 6.9 mph - N/A   Clear
12:54 PM 84.9 °F 43.0 °F 23% 29.93 in 10.0 mi ESE 5.8 mph - N/A   Clear
1:54 PM 90.0 °F 43.0 °F 19% 29.90 in 10.0 mi ENE 10.4 mph - N/A   Clear
2:54 PM 88.0 °F 43.0 °F 21% 29.91 in 10.0 mi NE 15.0 mph 20.7 mph N/A   Clear
3:54 PM 87.1 °F 43.0 °F 21% 29.92 in 10.0 mi NE 4.6 mph - N/A   Clear
4:30 PM 86.0 °F 44.6 °F 23% 30.19 in 10.0 mi NNE 9.2 mph - N/A Thunderstorm Clear
4:45 PM 82.4 °F 44.6 °F 26% 30.20 in 10.0 mi WNW 16.1 mph 20.7 mph N/A   Clear
4:54 PM 82.0 °F 44.1 °F 26% 29.95 in 10.0 mi NW 21.9 mph 28.8 mph N/A   Partly Cloudy
5:54 PM 79.0 °F 45.0 °F 30% 29.99 in 10.0 mi WNW 18.4 mph - N/A   Partly Cloudy
6:54 PM 73.9 °F 46.9 °F 38% 30.02 in 10.0 mi WSW 17.3 mph - N/A   Clear
7:54 PM 72.0 °F 46.9 °F 41% 29.99 in 10.0 mi WSW 15.0 mph - N/A   Clear
8:54 PM 70.0 °F 46.9 °F 44% 29.99 in 10.0 mi WSW 12.7 mph - N/A   Clear
9:54 PM 68.0 °F 46.9 °F 47% 29.98 in 10.0 mi West 8.1 mph - N/A   Clear
10:54 PM 64.0 °F 46.0 °F 52% 30.00 in 10.0 mi SW 8.1 mph - N/A   Clear
11:54 PM 64.0 °F 48.9 °F 58% 30.00 in 10.0 mi WSW 13.8 mph - N/A   Clear